Location: Great Malvern
(52.1167°N, 2.3167°W)
Time: 15:12:40
(UTC+00:00)

Spot 2 Rocket - Pass Details

Date: 18 September 2020
Orbit: 758 x 772 km, 98.6° (Epoch: 22 October)

Event Time Altitude Azimuth Distance (km) Brightness Sun altitude
Exits shadow 21:28:19 65° 243° (WSW) 838 3.6 -27.4°
Maximum altitude 21:28:31 65° 257° (WSW) 834 3.7 -27.4°
Drops below altitude 10° 21:33:33 10° 340° (NNW) 2,301 6.8 -27.9°
Sets 21:35:53 0° 343° (NNW) 3,231 7.7 -28.2°
